[[{"header":{"parameterUnit":"m.s-1","parameterCategory":1,"la1":30.2991,"la2":30.254,"lo1":-89.0895,"lo2":-89.0444,"dy":0.0017,"dx":0.0017,"nx":28,"ny":28,"refTime":"2024-06-22T09:00:00:Z","depth":0,"parameterNumber":2,"parameterNumberName":"U-component_of_WINDS"},"data":[0,0,0,0,0,0,0,0,0,0,0,0,0,0,0,0,0,0,0,0,0,0,0,0,0,0,0,0,0,0,0,0,0,0,0,0,0,0,0,0,0,0,0,0,0,0,0,0,0,0,0,0,0,0,0,0,0,0,0.1279,0.128,0,0.1359,0.136,0.1361,0.1394,0.1394,0.1394,0.1394,0.1476,0.1478,0.1481,0,0,0,0,0,0,0,0,0,0,0,0,0,0.1154,0.1157,0.1279,0.128,0.1281,0.1359,0.136,0.1361,0.1394,0.1394,0.1394,0.1394,0.1475,0.1478,0.1481,0,0,0,0,0,0,0,0,0,0,0,0,0,0.1219,0.1157,0.1279,0.1307,0.131,0.1358,0.136,0.1361,0.1394,0.1394,0.1394,0.1394,0.1474,0.1478,0.1481,0.1507,0,0,0.1492,0.1494,0,0,0,0,0,0,0,0,0.1215,0.1223,0.1302,0.1305,0.1309,0.1366,0.1346,0.141,0.1394,0.1362,0.1394,0.1394,0.144,0.1446,0.1462,0.1511,0.1515,0.1492,0.1494,0.1496,0.1497,0,0,0,0,0,0,0,0.1211,0.122,0.131,0.1303,0.1307,0.1315,0.1324,0.1358,0.1401,0.1365,0.1368,0.1377,0.1442,0.1458,0.1464,0.1516,0.1492,0.1495,0.1497,0.1499,0.159,0.1591,0,0,0,0,0,0,0.1202,0.1216,0.1308,0.1313,0.126,0.1318,0.1328,0.1348,0.1401,0.1409,0.1377,0.1378,0.1452,0.146,0.1467,0.1501,0.1496,0.1499,0.1501,0.159,0.159,0.1591,0,0,0,0,0,0,0.1199,0.1209,0.1305,0.1265,0.1278,0.132,0.1343,0.135,0.1366,0.141,0.1418,0.1386,0.1452,0.1462,0.1497,0.1504,0.1501,0.1504,0.159,0.159,0.1591,0.1568,0,0,0,0,0,0,0.1195,0.1208,0.1219,0.1265,0.128,0.1333,0.1343,0.1352,0.1372,0.1375,0.1421,0.1428,0.1453,0.1491,0.15,0.1509,0.1507,0.1589,0.159,0.159,0.1569,0.1568,0.1567,0,0,0,0,0,0.119,0.121,0.1219,0.123,0.1294,0.1334,0.1342,0.1371,0.1373,0.1384,0.1411,0.1426,0.1502,0.1495,0.1505,0.1515,0.1589,0.159,0.159,0.1569,0.1568,0.1568,0,0,0,0,0,0,0.1163,0.1216,0.1227,0.1262,0.1293,0.1339,0.1354,0.1369,0.14,0.1401,0.1435,0.1445,0.1477,0.1499,0.1491,0.1542,0.1546,0.1549,0.1527,0.1526,0.1526,0.152,0.151,0,0,0,0,0,0.1161,0.1189,0.1234,0.126,0.1275,0.1312,0.133,0.1349,0.1383,0.1396,0.1427,0.1459,0.1489,0.1509,0.154,0.1572,0.1582,0.1583,0.1583,0.1582,0.1584,0.1602,0.1603,0.1593,0.1593,0.1593,0,0,0.1157,0.119,0.1205,0.1255,0.1282,0.131,0.1323,0.1352,0.1373,0.1401,0.1435,0.1459,0.1497,0.153,0.1546,0.155,0.1589,0.1583,0.1582,0.1585,0.1603,0.1604,0.1605,0.1594,0.1594,0.1593,0,0,0.1164,0.1192,0.1217,0.1242,0.1282,0.1306,0.1312,0.1356,0.1372,0.1408,0.1429,0.1454,0.1506,0.1532,0.1552,0.1568,0.1583,0.1577,0.1574,0.1592,0.1592,0.1593,0.1599,0.16,0.1579,0.1579,0.1579,0,0.1155,0.1198,0.1227,0.1255,0.1276,0.1302,0.1327,0.1351,0.1398,0.1412,0.1415,0.1481,0.1508,0.1548,0.1552,0.1567,0.1575,0.1573,0.159,0.1591,0.1592,0.1598,0.16,0.1578,0.1578,0.1578,0.1578,0,0.1184,0.1213,0.1228,0.1273,0.1296,0.1322,0.1355,0.1375,0.1392,0.1415,0.145,0.1484,0.1522,0.1532,0.1549,0.1574,0.1575,0.1583,0.1588,0.1592,0.1598,0.16,0.1577,0.1577,0.1577,0.1578,0,0,0.1177,0.1237,0.1242,0.1263,0.1308,0.1331,0.1358,0.1395,0.1411,0.1442,0.1465,0.1509,0.1516,0.1539,0.1559,0.1574,0.1584,0.1581,0.1582,0.158,0.1613,0.1607,0.1609,0.1594,0.1594,0.1595,0.161,0,0.119,0.124,0.1267,0.1306,0.1333,0.1357,0.1381,0.1411,0.1433,0.146,0.1484,0.1514,0.1523,0.1536,0.1552,0.1579,0.1591,0.1578,0.1616,0.1617,0.1606,0.1612,0.1605,0.1618,0.1612,0.1613,0.1613,0,0.1213,0.1244,0.1285,0.1326,0.1339,0.1359,0.1395,0.142,0.1454,0.1469,0.1494,0.1513,0.1542,0.1544,0.1585,0.1575,0.1592,0.1608,0.1609,0.1614,0.1615,0.1617,0.1623,0.1625,0.1617,0.1617,0.1616,0,0.1204,0.1255,0.1287,0.1303,0.1352,0.1366,0.1387,0.1421,0.1441,0.1472,0.1485,0.1519,0.1537,0.1563,0.1591,0.159,0.1628,0.1633,0.1642,0.1641,0.1649,0.1648,0.1658,0.1659,0.1659,0.1659,0.1659,0,0.1216,0.124,0.1283,0.1302,0.133,0.136,0.1387,0.1409,0.1439,0.1463,0.1486,0.1508,0.1543,0.1569,0.1591,0.1621,0.1629,0.1642,0.1648,0.164,0.1639,0.1652,0.1652,0.166,0.166,0.1659,0.1659,0,0.1211,0.124,0.1276,0.1319,0.1331,0.1349,0.1386,0.1405,0.1428,0.1458,0.1467,0.1503,0.1535,0.1565,0.1608,0.1622,0.1652,0.1659,0.1641,0.1644,0.1651,0.165,0.167,0.1674,0.1672,0.1672,0.1672,0,0.1217,0.1236,0.1281,0.1298,0.1319,0.1347,0.1367,0.1398,0.1418,0.1458,0.1472,0.1505,0.1534,0.1583,0.1614,0.1646,0.1654,0.1659,0.1659,0.1651,0.1654,0.1653,0.1655,0.1658,0.1658,0.1658,0.1658,0,0.1224,0.1238,0.1267,0.13,0.1324,0.1352,0.1381,0.1394,0.1429,0.1451,0.1483,0.1505,0.1548,0.1581,0.1617,0.1638,0.1654,0.1658,0.1661,0.1654,0.1643,0.1649,0.1639,0.1657,0.1657,0.1657,0.1657,0.1657,0.1225,0.1243,0.1277,0.1308,0.1333,0.1359,0.1379,0.1405,0.1433,0.147,0.1486,0.1519,0.1552,0.1601,0.1622,0.1648,0.1652,0.1657,0.1659,0.166,0.1658,0.1638,0.1655,0.1655,0.1655,0.1655,0.1655,0,0.1234,0.1257,0.1285,0.1324,0.1349,0.1361,0.1393,0.1413,0.1441,0.1471,0.1498,0.1535,0.1567,0.1599,0.1632,0.1647,0.1655,0.1654,0.1654,0.1658,0.1653,0.1646,0.1647,0.1647,0.1647,0.1647,0.1647,0.1647,0.1241,0.1272,0.129,0.1333,0.1356,0.1388,0.1406,0.143,0.1453,0.1494,0.152,0.1541,0.1571,0.1606,0.1636,0.1645,0.1656,0.1653,0.1664,0.1658,0.1659,0.1659,0.1653,0.1656,0.1656,0.1667,0.1667,0.1668]},{"header":{"parameterUnit":"m.s-1","parameterCategory":1,"la1":30.2991,"la2":30.254,"lo1":-89.0895,"lo2":-89.0444,"dy":0.0017,"dx":0.0017,"nx":28,"ny":28,"refTime":"2024-06-22T09:00:00:Z","depth":0,"parameterNumber":3,"parameterNumberName":"V-component_of_WINDS"},"data":[0,0,0,0,0,0,0,0,0,0,0,0,0,0,0,0,0,0,0,0,0,0,0,0,0,0,0,0,0,0,0,0,0,0,0,0,0,0,0,0,0,0,0,0,0,0,0,0,0,0,0,0,0,0,0,0,0,0,2.9492,2.9492,0,2.9483,2.9483,2.9483,2.9475,2.9475,2.9474,2.9474,2.9464,2.9464,2.9463,0,0,0,0,0,0,0,0,0,0,0,0,0,2.9503,2.9502,2.9492,2.9492,2.9492,2.9483,2.9483,2.9483,2.9475,2.9475,2.9474,2.9474,2.9464,2.9464,2.9463,0,0,0,0,0,0,0,0,0,0,0,0,0,2.9496,2.9502,2.9492,2.9487,2.9487,2.9483,2.9483,2.9483,2.9475,2.9475,2.9474,2.9474,2.9464,2.9464,2.9463,2.9464,0,0,2.9462,2.9462,0,0,0,0,0,0,0,0,2.9497,2.9496,2.9488,2.9487,2.9487,2.948,2.9483,2.9476,2.9475,2.9479,2.9474,2.9474,2.9469,2.9468,2.9467,2.9464,2.9463,2.9462,2.9462,2.9462,2.9462,0,0,0,0,0,0,0,2.9497,2.9496,2.9489,2.9488,2.9487,2.9485,2.9484,2.9481,2.9475,2.9479,2.9478,2.9477,2.9469,2.9467,2.9467,2.9463,2.9462,2.9462,2.9462,2.9462,2.946,2.946,0,0,0,0,0,0,2.9498,2.9497,2.9489,2.9488,2.9491,2.9485,2.9484,2.9482,2.9475,2.9474,2.9477,2.9477,2.9468,2.9467,2.9466,2.9467,2.9462,2.9462,2.9462,2.946,2.946,2.946,0,0,0,0,0,0,2.9499,2.9498,2.9489,2.9492,2.9491,2.9485,2.9483,2.9482,2.9481,2.9474,2.9473,2.9477,2.9468,2.9467,2.9465,2.9466,2.9462,2.9461,2.946,2.946,2.946,2.9468,0,0,0,0,0,0,2.9499,2.9498,2.9498,2.9492,2.9491,2.9488,2.9483,2.9482,2.948,2.9479,2.9473,2.9472,2.9467,2.9465,2.9465,2.9466,2.9461,2.9459,2.946,2.946,2.9467,2.9468,2.9469,0,0,0,0,0,2.9499,2.9501,2.9498,2.9498,2.9491,2.9489,2.9488,2.9483,2.948,2.9481,2.9476,2.9472,2.9466,2.9465,2.9464,2.9465,2.9459,2.946,2.946,2.9467,2.9468,2.9469,0,0,0,0,0,0,2.9507,2.95,2.9497,2.9497,2.9493,2.9487,2.9487,2.9484,2.9481,2.948,2.9474,2.9472,2.9471,2.9468,2.9467,2.9466,2.9462,2.9462,2.9468,2.9469,2.947,2.947,2.9461,0,0,0,0,0,2.9508,2.9507,2.9501,2.9501,2.9499,2.9494,2.9492,2.9489,2.9485,2.9483,2.9479,2.9475,2.9472,2.947,2.9467,2.9467,2.9465,2.9467,2.9468,2.9469,2.9469,2.9468,2.9469,2.9461,2.9461,2.9461,0,0,2.9511,2.9507,2.9507,2.9502,2.9499,2.9497,2.9492,2.9491,2.9489,2.9483,2.9481,2.9477,2.9473,2.9471,2.9471,2.9469,2.947,2.9469,2.947,2.9469,2.9468,2.9469,2.947,2.9461,2.9461,2.9461,0,0,2.9516,2.9513,2.9513,2.951,2.9506,2.9502,2.9502,2.9496,2.9494,2.9492,2.9487,2.9485,2.948,2.9477,2.9475,2.9479,2.9475,2.9478,2.9482,2.9481,2.9482,2.9483,2.9484,2.9484,2.9478,2.9478,2.9478,0,2.9521,2.9518,2.9513,2.9512,2.951,2.9504,2.9504,2.9501,2.9496,2.9495,2.9493,2.9487,2.9483,2.9481,2.9482,2.948,2.948,2.9479,2.9482,2.9483,2.9483,2.9484,2.9485,2.9479,2.9479,2.9478,2.9478,0,2.9524,2.9522,2.9522,2.9518,2.9516,2.9515,2.951,2.9508,2.9505,2.9501,2.9499,2.9495,2.9491,2.949,2.9487,2.9488,2.9487,2.9484,2.948,2.9484,2.9485,2.9486,2.9479,2.9479,2.9479,2.9479,0,0,2.9533,2.9526,2.9526,2.9524,2.9518,2.9517,2.9516,2.9512,2.9511,2.9508,2.9506,2.9503,2.95,2.9497,2.9493,2.9493,2.9496,2.949,2.949,2.9491,2.9497,2.9499,2.9499,2.9494,2.9494,2.9494,2.9497,0,2.9536,2.9534,2.953,2.9529,2.9527,2.9522,2.9521,2.9518,2.9514,2.9512,2.9508,2.9506,2.9502,2.9501,2.95,2.9496,2.9497,2.9496,2.9492,2.9492,2.9493,2.95,2.9502,2.9505,2.9497,2.9497,2.9497,0,2.9541,2.9538,2.9537,2.9532,2.9531,2.953,2.9527,2.9525,2.9521,2.9518,2.9516,2.9512,2.951,2.9507,2.9504,2.9503,2.9501,2.9499,2.9499,2.9498,2.9495,2.9499,2.9506,2.9507,2.9498,2.9498,2.9498,0,2.9547,2.9543,2.9542,2.954,2.9534,2.9534,2.9531,2.9527,2.9525,2.9522,2.9521,2.9518,2.9516,2.9513,2.9508,2.9506,2.9506,2.9502,2.9503,2.9503,2.9503,2.9503,2.951,2.9503,2.9503,2.9503,2.9503,0,2.9552,2.9551,2.9545,2.9544,2.9544,2.9538,2.9538,2.9535,2.9531,2.953,2.9525,2.9523,2.9517,2.9515,2.9511,2.9509,2.9508,2.9506,2.9505,2.9506,2.9507,2.9505,2.9504,2.9503,2.9503,2.9503,2.9503,0,2.9558,2.9554,2.9553,2.9547,2.9546,2.9546,2.9541,2.954,2.9537,2.9535,2.9534,2.9528,2.9525,2.952,2.9516,2.9513,2.9512,2.9511,2.9514,2.9513,2.9515,2.9514,2.952,2.9521,2.9513,2.9513,2.9513,0,2.9562,2.9561,2.9556,2.9555,2.9553,2.9551,2.9549,2.9544,2.9542,2.9538,2.9537,2.9534,2.9531,2.9527,2.9522,2.9519,2.9517,2.9519,2.9516,2.9517,2.9516,2.9516,2.9516,2.9519,2.952,2.952,2.952,0,2.9568,2.9566,2.9563,2.956,2.9559,2.9556,2.9553,2.9552,2.9547,2.9545,2.9542,2.954,2.9536,2.9532,2.9528,2.9525,2.9522,2.9521,2.9521,2.9522,2.9524,2.9523,2.9515,2.9521,2.9521,2.952,2.952,2.952,2.9573,2.9572,2.9568,2.9566,2.9563,2.9561,2.956,2.9556,2.9554,2.955,2.9547,2.9545,2.9541,2.9535,2.9532,2.953,2.9528,2.9528,2.9528,2.9528,2.9529,2.9525,2.9529,2.9529,2.9529,2.9529,2.9529,0,2.9578,2.9576,2.9574,2.957,2.9568,2.9565,2.9562,2.956,2.9558,2.9555,2.9552,2.9549,2.9546,2.9541,2.9538,2.9537,2.9535,2.9536,2.9536,2.9535,2.9531,2.9531,2.9537,2.9537,2.9537,2.9537,2.9537,2.9537,2.9581,2.958,2.9577,2.9575,2.9572,2.957,2.9568,2.9566,2.9563,2.956,2.9557,2.9554,2.955,2.9546,2.9543,2.9542,2.9541,2.9543,2.9541,2.9536,2.9535,2.9535,2.9535,2.9542,2.9542,2.9545,2.9545,2.9545]}]]